Location: Burland Observatory
(39.4088°N, 105.4217°W)
Time: 09:39:37
(UTC-07:00)

Vanguard 1 - All Passes

Search period start: 10 December 2019 00:00
Search period end: 20 December 2019 00:00
Orbit: 652 x 3832 km, 34.3° (Epoch: 09 December)

Date Brightness Start Highest point End Pass type
(mag) Time Alt. Az. Time Alt. Az. Time Alt. Az.
10 Dec - 00:18:19 10° SSE 00:29:42 17° SE 00:41:40 10° E visible
10 Dec - 02:32:30 10° SSW 02:53:05 45° SE 03:12:07 10° E visible
10 Dec - 04:55:21 10° WSW 05:18:48 69° SSE 05:35:32 10° E visible
10 Dec - 07:22:38 10° W 07:44:13 72° S 07:56:38 10° ESE daylight
10 Dec - 09:51:14 10° W 10:06:35 43° SW 10:15:20 10° SSE daylight
11 Dec - 00:35:36 10° S 00:50:15 24° SE 01:05:55 10° E visible
11 Dec - 02:52:43 10° SW 03:14:12 53° SSE 03:33:41 10° E visible
11 Dec - 05:16:41 10° WSW 05:40:17 73° S 05:56:40 10° E visible
11 Dec - 07:44:25 10° W 08:05:27 68° SSW 08:17:27 10° ESE daylight
11 Dec - 10:13:14 10° W 10:27:05 35° SW 10:35:24 10° SSE daylight
12 Dec - 00:54:12 10° S 01:10:52 31° SE 01:28:51 10° E visible
12 Dec - 03:13:16 10° SW 03:35:25 60° SSE 03:55:06 10° E visible
12 Dec - 05:38:11 10° WSW 06:01:48 75° S 06:17:46 10° E visible
12 Dec - 08:06:12 10° W 08:26:33 62° SSW 08:38:10 10° SE daylight
12 Dec - 10:35:32 10° W 10:47:25 27° SW 10:55:06 10° S daylight
13 Dec - 01:13:33 10° SSW 01:31:34 38° SE 01:51:08 10° E visible
13 Dec - 03:34:07 10° SW 03:56:47 66° SSE 04:16:26 10° E visible
13 Dec - 05:59:48 10° W 06:23:18 75° S 06:38:49 10° ESE visible
13 Dec - 08:28:02 10° W 08:47:31 55° SSW 08:58:44 10° SE daylight
13 Dec - 10:58:23 10° W 11:07:35 19° SW 11:14:10 10° S daylight
13 Dec - 23:19:55 10° SSE 23:29:54 16° SE 23:41:09 10° E visible
14 Dec - 01:33:21 10° SSW 01:52:25 46° SE 02:13:03 10° E visible
14 Dec - 03:55:10 10° WSW 04:18:15 71° SSE 04:37:43 10° E visible
14 Dec - 06:21:28 10° W 06:44:45 73° S 06:59:48 10° ESE visible
14 Dec - 08:49:55 10° W 09:08:16 47° SW 09:19:06 10° SE daylight
14 Dec - 11:22:43 10° WSW 11:27:39 13° WSW 11:31:46 10° SW daylight
14 Dec - 23:37:13 10° S 23:50:15 23° SE 00:05:36 10° E visible
15 Dec - 01:53:35 10° SW 02:13:25 53° SSE 02:34:44 10° E visible
15 Dec - 04:16:25 10° WSW 04:39:48 74° S 04:58:57 10° E visible
15 Dec - 06:43:11 10° W 07:06:06 70° SSW 07:20:42 10° ESE visible
15 Dec - 09:11:57 10° W 09:28:50 38° SW 09:39:12 10° SSE daylight
15 Dec - 23:55:52 10° S 00:10:39 30° SE 00:28:41 10° E visible
16 Dec - 02:14:05 10° SW 02:34:35 60° SSE 02:56:16 10° E visible
16 Dec - 04:37:49 10° WSW 05:01:24 76° S 05:20:10 10° E visible
16 Dec - 07:04:55 10° W 07:27:20 64° SSW 07:41:28 10° SE daylight
16 Dec - 09:34:14 10° W 09:49:12 30° SW 09:58:56 10° S daylight
17 Dec - 00:15:13 10° SSW 00:31:11 38° SE 00:51:06 10° E visible
17 Dec - 02:34:51 10° SW 02:55:54 66° SSE 03:17:43 10° E visible
17 Dec - 04:59:19 10° W 05:23:00 76° S 05:41:19 10° ESE visible
17 Dec - 07:26:42 10° W 07:48:22 57° SSW 08:02:04 10° SE daylight
17 Dec - 09:57:00 10° W 10:09:26 23° SW 10:18:08 10° S daylight
17 Dec - 22:22:32 10° SSE 22:30:26 15° ESE 22:39:41 10° E visible
18 Dec - 00:35:03 10° SSW 00:51:53 45° SE 01:13:07 10° E visible
18 Dec - 02:55:50 10° WSW 03:17:21 71° SSE 03:39:08 10° E visible
18 Dec - 05:20:52 10° W 05:44:33 74° S 06:02:24 10° ESE visible
18 Dec - 07:48:33 10° W 08:09:14 49° SW 08:22:26 10° SE daylight
18 Dec - 10:20:47 10° W 10:29:31 16° WSW 10:36:19 10° SSW daylight
18 Dec - 22:39:39 10° S 22:50:36 21° SE 23:04:29 10° E visible
19 Dec - 00:55:14 10° SW 01:12:46 53° SSE 01:34:56 10° E visible
19 Dec - 03:16:59 10° WSW 03:38:54 75° S 04:00:30 10° E visible
19 Dec - 05:42:28 10° W 06:06:01 71° SSW 06:23:22 10° ESE visible
19 Dec - 08:10:32 10° W 08:29:52 41° SW 08:42:33 10° SSE daylight
19 Dec - 22:58:17 10° S 23:10:51 28° SE 23:27:45 10° E visible
